STARLINK-32695, 62866

Orbit data source: Space-Track

STARLINK-32695, 62866 is a payload satellite owned by SpaceX/Seattle (US) in LEO that was launched on Sat, 01 Feb 2025 UTC via an FALCON 9 launch vehicle from the Air Force Western Test Range (AFWTR). Payload-class satellites include a variety of spacecraft equipped with specific instruments for various scientific and technological missions. These include communications satellites like Starlink; space stations such as the ISS; scientific satellites like the Hubble; Earth observation satellites from companies like Planet Labs, Umbra, and HawkEye 360; GPS; miniature CubeSats for education and research; and military/defense satellites.

Loading next visibility...
Identifier
62866, 2025-022N
Orbit
LEO
Country
Flag of USUS
Related business
Manufacturer
SpaceX/Seattle
Mission
Operational Commercial Communications
Bus & Motor
STARLINK V2M, Unknown motor
Mass
730 kg wet, ~700 kg dry
Launch date (UTC)
2025-02-01 (11 months ago)
Launch vehicle
FALCON 9
Launch site
Air Force Western Test Range (AFWTR)
Object type
Payload
Rocket body
Debris
Shape & HBR
Box + 2 Pan, 17.7 m
Radar Cross Section
33.884 m², Large (>1 m²)

Expand to show TLE details & history
Last TLE update: 13 hours ago

TLE from 13 hours ago
0 STARLINK-32695
1 62866U 25022N   25352.17225427  .00021408  00000-0  73274-3 0  9997
2 62866  53.1584 147.9560 0001152  73.4491 286.6636 15.30204027 49425
Epoch: 2025-12-18T04:08Z
TLE epoch observation values (Epoch: 2025-12-18T04:08:02.768Z)
Latitude
-0.00006°
Longitude
-1.08716°
Altitude
475.876 km
Speed
7.629 km/s
True Right ascension
09h 51m 49s
True Declination
0° 00' 00"
Sunlit
Object was in full shadow at epoch
Visualization orbit readout
Latitude
Unknown
Longitude
Unknown
Altitude
Unknown
Speed
Unknown
Apparent Right ascension
Unknown
Apparent Declination
Unknown
Sunlit
N/A
Visualization observer readout
Local Sidereal Time
16:08:33
Azimuth
Unknown
Elevation
Unknown
Doppler factor
Unknown
Orbital elements
Apogee altitude
476.249 km
Perigee altitude
474.67 km
Semi-major axis
6,853.597 km
Eccentricity
0.00012
Inclination
53.1584°
RAAN
147.956°
Arg. of periapsis
73.4491°
True anomaly
286.65095°
Mean anomaly
286.6636°
Eccentric anomaly
286.65728°
Mean motion
3.8253 °/min
Orbital period
94.11 mins
BSTAR
0.00073274
Loading maneuver chart data...
Computing Atmospheric mass density...
Loading historical data...
Loading historical data...
Loading historical data...
Loading historical data...
Loading historical data...
Loading historical data...
Loading historical data...

Documentation

Showing up to 5 results
|